QPF
0.02 0.02 0.01 0.00 0.01 0.02 0.03 0.02 0.00 0.00 0.00 0.00 0.00 0.00 0.00 0.00 0.00 0.00 0.00 0.00 0.00 0.00 0.00 0.00 0.00 0.00 0.00 0.00 0.00 0.00 0.00 0.00 0.00 0.00 0.00 0.00 0.00 0.00 0.00 0.00 0.00 0.00 0.00 0.00 0.00
0.04 0.02 0.02 0.02 0.00 0.00 0.02 0.02 0.00 0.00 0.00 0.00 0.00 0.00 0.00 0.00 0.00 0.00 0.00 0.00 0.00 0.00 0.00 0.00 0.00 0.00 0.00 0.00 0.00 0.00 0.00 0.00 0.00 0.00 0.00 0.00 0.00 0.00 0.00 0.00 0.00 0.00 0.00 0.00 0.00
0.05 0.04 0.02 0.02 0.02 0.00 0.00 0.01 0.00 0.00 0.00 0.00 0.00 0.00 0.00 0.00 0.00 0.00 0.00 0.00 0.00 0.00 0.00 0.00 0.00 0.00 0.00 0.00 0.00 0.00 0.00 0.00 0.00 0.00 0.00 0.00 0.00 0.00 0.00 0.00 0.00 0.00 0.00 0.00 0.00
0.04 0.04 0.04 0.02 0.04 0.02 0.00 0.00 0.00 0.00 0.00 0.00 0.00 0.00 0.00 0.00 0.00 0.00 0.00 0.00 0.00 0.00 0.00 0.00 0.00 0.00 0.00 0.00 0.00 0.00 0.00 0.00 0.00 0.00 0.00 0.00 0.00 0.00 0.00 0.00 0.00 0.00 0.00 0.00 0.00
0.05 0.03 0.04 0.04 0.03 0.06 0.02 0.00 0.00 0.00 0.00 0.00 0.00 0.00 0.00 0.00 0.00 0.00 0.00 0.00 0.00 0.00 0.00 0.00 0.00 0.00 0.00 0.00 0.00 0.00 0.00 0.00 0.00 0.00 0.00 0.00 0.00 0.00 0.00 0.00 0.00 0.00 0.00 0.00 0.00
0.03 0.04 0.03 0.03 0.04 0.04 0.05 0.01 0.00 0.00 0.00 0.00 0.00 0.00 0.00 0.00 0.00 0.00 0.00 0.00 0.00 0.00 0.00 0.00 0.00 0.00 0.00 0.00 0.00 0.00 0.00 0.00 0.00 0.00 0.00 0.00 0.00 0.00 0.00 0.00 0.00 0.00 0.00 0.00 0.00
0.00 0.03 0.03 0.03 0.04 0.05 0.04 0.03 0.00 0.00 0.00 0.00 0.00 0.00 0.00 0.00 0.00 0.00 0.00 0.00 0.00 0.00 0.00 0.00 0.00 0.00 0.00 0.00 0.00 0.00 0.00 0.00 0.00 0.00 0.00 0.00 0.00 0.00 0.00 0.00 0.00 0.00 0.00 0.00 0.00
0.01 0.00 0.03 0.02 0.03 0.06 0.06 0.04 0.03 0.00 0.00 0.00 0.00 0.00 0.00 0.00 0.00 0.00 0.00 0.00 0.00 0.00 0.00 0.00 0.00 0.00 0.00 0.00 0.00 0.00 0.00 0.00 0.00 0.00 0.00 0.00 0.00 0.00 0.00 0.00 0.00 0.00 0.00 0.00 0.00
0.04 0.00 0.01 0.02 0.02 0.04 0.07 0.04 0.02 0.03 0.02 0.00 0.00 0.00 0.00 0.00 0.00 0.00 0.00 0.00 0.00 0.00 0.00 0.00 0.00 0.00 0.00 0.00 0.00 0.00 0.00 0.00 0.00 0.00 0.00 0.00 0.00 0.00 0.00 0.00 0.00 0.00 0.00 0.00 0.00
0.05 0.02 0.00 0.01 0.02 0.03 0.06 0.06 0.04 0.03 0.03 0.00 0.00 0.00 0.00 0.00 0.00 0.00 0.00 0.00 0.00 0.00 0.00 0.00 0.00 0.00 0.00 0.00 0.00 0.00 0.00 0.00 0.00 0.00 0.00 0.00 0.00 0.00 0.00 0.00 0.00 0.00 0.00 0.00 0.00
0.02 0.05 0.01 0.00 0.02 0.04 0.07 0.07 0.04 0.02 0.01 0.00 0.00 0.00 0.00 0.00 0.00 0.00 0.00 0.00 0.00 0.00 0.00 0.00 0.00 0.00 0.00 0.00 0.00 0.00 0.00 0.00 0.00 0.00 0.00 0.00 0.00 0.00 0.00 0.00 0.00 0.00 0.00 0.00 0.00
0.01 0.03 0.03 0.00 0.01 0.04 0.04 0.03 0.00 0.00 0.00 0.00 0.00 0.00 0.00 0.00 0.00 0.00 0.00 0.00 0.00 0.00 0.00 0.00 0.00 0.00 0.00 0.00 0.00 0.00 0.00 0.00 0.00 0.00 0.00 0.00 0.00 0.00 0.00 0.00 0.00 0.00 0.00 0.00 0.00
0.01 0.01 0.05 0.04 0.01 0.03 0.02 0.02 0.01 0.00 0.01 0.00 0.00 0.00 0.00 0.00 0.00 0.00 0.00 0.00 0.00 0.00 0.00 0.00 0.00 0.00 0.00 0.00 0.00 0.00 0.00 0.00 0.00 0.00 0.00 0.00 0.00 0.00 0.00 0.00 0.00 0.00 0.00 0.00 0.00
0.00 0.02 0.04 0.08 0.04 0.02 0.02 0.04 0.03 0.02 0.01 0.00 0.00 0.00 0.00 0.00 0.00 0.00 0.00 0.00 0.00 0.00 0.00 0.00 0.00 0.00 0.00 0.00 0.00 0.00 0.00 0.00 0.00 0.00 0.00 0.00 0.00 0.00 0.00 0.00 0.00 0.00 0.00 0.00 0.00
0.00 0.02 0.03 0.08 0.01 0.01 0.02 0.04 0.03 0.03 0.01 0.00 0.00 0.00 0.00 0.00 0.00 0.00 0.00 0.00 0.00 0.00 0.00 0.00 0.00 0.00 0.00 0.00 0.00 0.00 0.00 0.00 0.00 0.00 0.00 0.00 0.00 0.00 0.00 0.00 0.00 0.00 0.00 0.00 0.00
0.00 0.00 0.05 0.05 0.01 0.00 0.02 0.03 0.01 0.02 0.00 0.00 0.00 0.00 0.00 0.00 0.00 0.00 0.00 0.00 0.00 0.00 0.00 0.00 0.00 0.00 0.00 0.00 0.00 0.00 0.00 0.00 0.00 0.00 0.00 0.00 0.00 0.00 0.00 0.00 0.00 0.00 0.00 0.00 0.00
0.00 0.00 0.02 0.01 0.00 0.00 0.02 0.02 0.01 0.00 0.00 0.00 0.00 0.00 0.00 0.00 0.00 0.00 0.00 0.00 0.00 0.00 0.00 0.00 0.00 0.00 0.00 0.00 0.00 0.00 0.00 0.00 0.00 0.00 0.00 0.00 0.00 0.00 0.00 0.00 0.00 0.00 0.00 0.00 0.00
0.00 0.00 0.00 0.01 0.00 0.00 0.01 0.00 0.00 0.00 0.00 0.00 0.00 0.00 0.00 0.00 0.00 0.00 0.00 0.00 0.00 0.00 0.00 0.00 0.00 0.00 0.00 0.00 0.00 0.00 0.00 0.00 0.00 0.00 0.00 0.00 0.00 0.00 0.00 0.00 0.00 0.00 0.00 0.00 0.00
0.01 0.00 0.00 0.00 0.01 0.01 0.01 0.00 0.00 0.00 0.00 0.00 0.00 0.00 0.00 0.01 0.00 0.00 0.00 0.00 0.00 0.00 0.00 0.00 0.00 0.00 0.00 0.00 0.00 0.00 0.00 0.00 0.00 0.00 0.00 0.00 0.00 0.00 0.00 0.00 0.00 0.00 0.00 0.00 0.00
0.00 0.00 0.00 0.00 0.02 0.01 0.00 0.00 0.00 0.00 0.00 0.00 0.00 0.00 0.00 0.00 0.00 0.00 0.00 0.00 0.00 0.00 0.00 0.00 0.00 0.00 0.00 0.00 0.00 0.00 0.00 0.00 0.00 0.00 0.00 0.00 0.00 0.00 0.00 0.00 0.00 0.00 0.00 0.00 0.00
0.00 0.00 0.00 0.00 0.03 0.01 0.00 0.00 0.00 0.00 0.00 0.00 0.00 0.00 0.00 0.00 0.00 0.00 0.00 0.00 0.00 0.00 0.00 0.00 0.00 0.00 0.00 0.00 0.00 0.00 0.00 0.00 0.00 0.00 0.00 0.00 0.00 0.00 0.00 0.00 0.00 0.00 0.00 0.00 0.00
0.00 0.00 0.00 0.00 0.01 0.00 0.00 0.00 0.00 0.00 0.00 0.00 0.00 0.00 0.00 0.00 0.00 0.00 0.00 0.00 0.00 0.00 0.00 0.00 0.00 0.00 0.00 0.00 0.00 0.00 0.00 0.00 0.00 0.00 0.00 0.00 0.00 0.00 0.00 0.00 0.00 0.00 0.00 0.00 0.00
0.00 0.00 0.03 0.03 0.00 0.00 0.00 0.00 0.00 0.00 0.00 0.00 0.00 0.00 0.00 0.00 0.00 0.00 0.00 0.00 0.00 0.00 0.00 0.00 0.00 0.00 0.00 0.00 0.00 0.00 0.00 0.00 0.00 0.00 0.00 0.00 0.00 0.00 0.00 0.00 0.00 0.00 0.00 0.00 0.00
0.00 0.00 0.01 0.04 0.00 0.00 0.00 0.00 0.00 0.00 0.00 0.00 0.00 0.00 0.00 0.00 0.00 0.00 0.00 0.00 0.00 0.00 0.00 0.00 0.00 0.00 0.00 0.00 0.00 0.00 0.00 0.00 0.00 0.00 0.00 0.00 0.00 0.00 0.00 0.00 0.00 0.00 0.00 0.00 0.00
0.00 0.00 0.00 0.00 0.00 0.00 0.00 0.00 0.00 0.00 0.00 0.00 0.00 0.00 0.00 0.00 0.00 0.00 0.00 0.00 0.00 0.00 0.00 0.00 0.00 0.00 0.00 0.00 0.00 0.00 0.00 0.00 0.00 0.00 0.00 0.00 0.00 0.00 0.00 0.00 0.00 0.00 0.00 0.00 0.00
0.00 0.00 0.00 0.00 0.00 0.00 0.00 0.00 0.00 0.00 0.00 0.00 0.00 0.00 0.00 0.00 0.00 0.00 0.00 0.00 0.00 0.00 0.00 0.00 0.00 0.00 0.00 0.00 0.00 0.00 0.00 0.00 0.01 0.00 0.00 0.00 0.00 0.00 0.00 0.00 0.00 0.00 0.00 0.00 0.00
0.00 0.00 0.00 0.00 0.00 0.00 0.00 0.00 0.00 0.00 0.00 0.00 0.00 0.00 0.00 0.00 0.00 0.00 0.00 0.00 0.00 0.00 0.00 0.00 0.00 0.00 0.00 0.00 0.00 0.00 0.00 0.00 0.00 0.00 0.00 0.00 0.00 0.00 0.00 0.00 0.00 0.00 0.00 0.00 0.00
MSLP
1013.09 1013.30 1013.67 1014.09 1014.37 1014.49 1014.98 1015.15 1015.41 1015.62 1015.87 1016.18 1016.39 1016.55 1016.61 1016.48 1016.05 1015.77 1015.59 1015.60 1015.67 1015.31 1015.02 1014.81 1014.62 1014.67 1014.48 1015.07 1015.25 1015.65 1016.57 1017.30 1016.69 1016.55 1015.93 1015.72 1015.84 1015.92 1016.03 1016.41 1016.65 1016.60 1016.77 1016.70 1017.11
1013.08 1013.07 1013.38 1013.79 1014.14 1014.49 1014.85 1015.06 1015.51 1015.52 1015.77 1016.21 1016.40 1016.65 1016.80 1016.74 1016.61 1016.13 1015.58 1015.45 1015.52 1015.36 1015.29 1015.43 1015.48 1015.26 1015.40 1015.58 1015.69 1016.08 1016.85 1016.65 1016.26 1016.15 1016.07 1015.94 1015.99 1016.12 1016.35 1016.73 1017.01 1017.03 1017.01 1017.07 1017.26
1013.07 1013.07 1013.20 1013.48 1013.88 1014.22 1014.60 1014.96 1015.24 1015.29 1015.72 1016.28 1016.54 1016.73 1016.90 1016.87 1016.91 1015.85 1015.62 1015.57 1015.55 1015.55 1015.68 1015.77 1015.80 1015.78 1015.84 1015.88 1016.04 1016.35 1016.52 1016.47 1016.33 1016.24 1016.23 1016.15 1016.16 1016.26 1016.49 1017.13 1016.74 1016.57 1016.99 1017.43 1017.57
1012.92 1012.97 1013.10 1013.26 1013.57 1014.06 1014.38 1014.78 1015.13 1015.46 1015.91 1016.29 1016.61 1016.85 1017.01 1017.22 1016.90 1015.78 1015.71 1015.55 1015.51 1015.58 1015.81 1015.90 1015.97 1016.09 1016.22 1016.19 1016.20 1016.40 1016.37 1016.50 1016.53 1016.41 1016.32 1016.41 1016.51 1016.51 1016.70 1016.53 1016.49 1016.39 1016.81 1017.39 1017.71
1012.93 1012.77 1013.06 1013.20 1013.33 1013.75 1014.14 1014.60 1015.06 1015.47 1015.87 1016.34 1016.65 1016.91 1017.20 1017.36 1016.42 1015.62 1015.60 1015.57 1015.57 1015.75 1015.89 1016.09 1016.20 1016.24 1016.42 1016.35 1016.43 1016.56 1016.53 1016.68 1016.70 1016.61 1016.59 1016.51 1016.68 1016.77 1016.78 1016.58 1016.44 1016.64 1017.24 1017.56 1017.85
1012.80 1013.10 1012.97 1012.98 1013.26 1013.49 1013.87 1014.35 1014.85 1015.38 1015.81 1016.28 1016.61 1016.97 1017.31 1017.07 1015.76 1015.70 1015.78 1015.72 1015.66 1015.86 1016.07 1016.23 1016.23 1016.24 1016.52 1016.63 1016.70 1016.88 1016.96 1017.01 1016.93 1016.87 1016.82 1016.81 1017.04 1016.88 1016.82 1016.78 1016.84 1017.09 1017.53 1017.98 1018.18
1012.00 1012.71 1012.45 1012.99 1013.08 1013.37 1013.66 1013.99 1014.63 1015.21 1015.72 1016.16 1016.57 1016.99 1017.25 1016.28 1015.94 1015.88 1015.82 1015.82 1015.84 1015.87 1016.04 1016.30 1016.26 1016.45 1016.61 1017.00 1017.09 1017.42 1017.72 1017.54 1017.25 1017.15 1017.09 1017.16 1017.37 1017.12 1017.14 1017.21 1017.38 1017.67 1017.98 1018.26 1018.59
1011.52 1012.06 1012.34 1012.66 1013.03 1013.27 1013.53 1013.99 1014.50 1015.19 1015.83 1016.22 1016.63 1017.23 1016.93 1016.02 1016.08 1015.95 1015.84 1015.83 1015.85 1015.98 1016.13 1016.03 1016.18 1016.74 1016.87 1017.39 1017.71 1018.40 1018.58 1018.66 1017.88 1017.56 1017.55 1017.61 1017.60 1017.31 1017.38 1017.58 1017.89 1018.04 1018.27 1018.58 1019.01
1011.28 1011.50 1012.08 1012.65 1012.99 1013.15 1013.33 1013.84 1014.54 1015.12 1015.81 1016.40 1016.95 1017.11 1016.67 1015.86 1016.09 1015.94 1015.87 1015.94 1016.03 1016.11 1016.15 1016.24 1016.53 1017.38 1017.56 1018.15 1019.07 1019.43 1019.26 1019.20 1018.65 1018.00 1018.07 1018.23 1018.26 1017.42 1017.75 1017.89 1018.17 1018.29 1018.58 1018.88 1019.45
1010.97 1011.10 1011.76 1012.36 1012.78 1013.04 1013.25 1013.62 1014.49 1015.40 1016.18 1016.53 1016.80 1017.34 1016.35 1015.98 1015.95 1016.06 1016.06 1015.97 1016.32 1016.53 1016.70 1017.01 1017.56 1017.99 1018.63 1018.92 1019.26 1019.55 1019.84 1019.72 1019.33 1018.84 1018.79 1018.91 1018.63 1018.08 1018.10 1018.38 1018.72 1018.76 1018.79 1019.06 1019.56
1010.77 1010.81 1011.40 1011.73 1012.30 1012.78 1013.41 1013.42 1014.67 1015.71 1015.78 1015.44 1015.56 1015.78 1015.63 1015.87 1016.04 1016.28 1016.14 1016.27 1016.79 1017.25 1017.72 1017.96 1018.50 1018.45 1018.58 1018.77 1019.18 1019.52 1019.75 1019.92 1019.71 1019.23 1019.45 1019.30 1019.31 1018.63 1018.36 1018.40 1018.48 1019.01 1019.17 1019.20 1019.58
1010.71 1011.18 1011.03 1011.42 1012.22 1012.57 1012.94 1012.43 1012.55 1012.96 1015.01 1015.35 1015.23 1015.50 1015.55 1015.60 1016.29 1016.45 1016.32 1016.88 1017.41 1018.00 1018.27 1018.95 1018.83 1018.90 1019.03 1019.21 1019.59 1019.77 1020.04 1020.17 1019.86 1019.65 1020.03 1019.93 1019.72 1018.70 1018.47 1018.05 1017.75 1017.94 1018.51 1019.12 1019.86
1010.58 1010.74 1010.84 1011.31 1012.08 1012.96 1012.54 1012.25 1012.05 1012.22 1014.07 1015.29 1015.10 1015.11 1015.46 1015.92 1016.14 1016.47 1016.60 1017.21 1017.87 1018.55 1018.83 1018.99 1018.92 1018.95 1019.36 1019.79 1019.99 1020.11 1020.30 1020.30 1020.31 1020.28 1020.51 1020.55 1019.95 1018.75 1017.67 1017.43 1017.11 1017.31 1017.69 1018.36 1019.24
1010.32 1010.64 1010.84 1011.39 1012.21 1012.28 1012.36 1012.10 1012.34 1012.40 1013.95 1015.15 1015.02 1014.67 1015.19 1015.62 1016.28 1016.32 1016.54 1017.14 1018.09 1018.74 1019.33 1019.33 1019.01 1019.29 1019.55 1019.88 1020.13 1020.57 1020.32 1020.40 1020.79 1021.23 1021.81 1021.60 1020.99 1019.32 1018.06 1017.69 1017.18 1016.97 1017.54 1018.27 1019.07
1010.28 1010.27 1010.85 1011.52 1010.96 1011.96 1012.48 1012.07 1012.74 1013.12 1013.76 1013.70 1014.21 1014.00 1014.62 1015.61 1016.08 1016.71 1016.66 1017.10 1018.00 1018.52 1019.27 1019.22 1019.35 1019.45 1019.60 1019.66 1019.97 1020.38 1020.48 1020.91 1021.36 1022.04 1022.48 1022.56 1022.53 1019.31 1018.38 1017.59 1017.05 1017.16 1017.88 1018.69 1019.48
1009.95 1010.36 1010.77 1011.14 1011.31 1011.37 1011.94 1012.60 1013.26 1013.62 1013.13 1013.73 1013.59 1013.95 1014.99 1015.70 1016.37 1016.88 1016.89 1017.22 1017.84 1018.62 1019.11 1019.44 1019.22 1019.17 1019.08 1019.43 1019.63 1020.39 1021.04 1021.87 1022.57 1023.10 1023.38 1022.72 1022.40 1020.30 1018.85 1017.87 1017.53 1017.94 1018.56 1019.34 1020.18
1009.88 1010.16 1010.58 1010.58 1011.22 1011.48 1011.81 1012.04 1012.68 1011.73 1013.04 1013.23 1013.28 1013.58 1014.21 1015.38 1016.53 1016.77 1017.19 1017.48 1017.74 1019.04 1019.55 1019.66 1019.54 1019.24 1019.06 1019.64 1019.95 1020.31 1021.31 1023.06 1024.07 1024.55 1023.91 1023.16 1022.83 1020.10 1018.33 1017.97 1018.05 1018.25 1019.41 1020.13 1020.73
1009.72 1010.19 1010.36 1010.78 1011.18 1011.42 1012.63 1012.15 1011.46 1011.20 1011.56 1012.03 1012.64 1013.66 1014.09 1014.88 1016.02 1016.56 1017.01 1017.37 1017.82 1018.31 1019.34 1019.73 1020.08 1019.22 1018.83 1018.91 1019.29 1020.35 1021.01 1022.43 1023.59 1024.76 1024.31 1023.46 1021.89 1018.90 1018.11 1018.18 1018.23 1018.52 1019.70 1020.60 1021.36
1009.54 1010.47 1010.72 1010.81 1011.55 1011.71 1012.45 1012.59 1011.08 1011.02 1010.63 1011.44 1013.01 1013.65 1014.02 1014.52 1014.76 1016.07 1016.52 1016.72 1017.20 1017.67 1018.25 1019.34 1019.32 1018.92 1018.78 1018.67 1018.96 1020.33 1020.97 1022.04 1023.61 1025.21 1024.76 1022.81 1020.98 1018.74 1018.27 1018.75 1018.99 1019.52 1020.27 1020.86 1021.25
1009.94 1010.49 1010.68 1010.85 1011.16 1011.58 1012.14 1011.65 1011.52 1011.14 1010.56 1011.14 1011.66 1012.82 1013.15 1013.78 1014.52 1015.39 1016.10 1015.81 1016.67 1017.12 1017.49 1018.36 1019.17 1019.22 1019.11 1018.99 1019.17 1019.18 1020.30 1022.02 1023.52 1024.66 1024.38 1022.65 1021.29 1019.17 1018.67 1018.94 1019.58 1020.19 1020.56 1020.78 1021.23
1010.05 1010.63 1010.09 1010.48 1011.62 1012.32 1011.64 1011.70 1011.49 1011.78 1010.43 1010.80 1011.22 1012.01 1012.66 1013.26 1014.14 1014.85 1015.27 1015.57 1015.87 1016.87 1017.49 1018.03 1018.52 1019.79 1019.44 1019.30 1019.16 1019.62 1020.09 1021.02 1022.15 1023.15 1023.39 1022.77 1020.60 1019.00 1018.89 1018.83 1019.41 1020.09 1020.40 1020.69 1021.04
1009.78 1010.66 1010.28 1010.17 1012.27 1011.54 1010.92 1011.16 1011.49 1012.06 1010.48 1010.39 1010.65 1011.33 1011.89 1013.15 1014.14 1014.83 1014.85 1014.82 1014.92 1015.74 1017.03 1017.79 1018.35 1019.36 1019.28 1019.43 1019.47 1019.24 1019.49 1020.27 1021.44 1022.61 1022.60 1022.04 1020.11 1019.08 1018.72 1018.46 1018.75 1019.44 1019.90 1020.40 1020.79
1009.90 1010.39 1010.38 1010.33 1011.29 1011.64 1011.11 1010.71 1010.98 1011.54 1010.47 1010.26 1010.54 1010.58 1011.29 1012.76 1014.38 1014.55 1014.73 1014.72 1014.88 1015.57 1016.07 1017.17 1018.23 1019.44 1019.97 1019.85 1019.56 1019.38 1019.42 1019.78 1020.47 1021.00 1021.12 1021.34 1019.91 1019.02 1018.68 1018.71 1018.90 1019.01 1019.34 1019.64 1019.94
1009.87 1010.86 1010.83 1010.76 1010.44 1010.62 1010.89 1010.89 1010.78 1010.89 1011.01 1010.36 1010.39 1010.54 1011.56 1012.94 1013.69 1014.19 1014.83 1014.97 1015.02 1015.47 1016.00 1016.60 1017.66 1018.15 1018.67 1018.45 1018.46 1019.22 1019.03 1019.18 1019.71 1019.90 1020.12 1019.61 1019.46 1019.14 1018.98 1018.94 1018.91 1019.01 1019.12 1019.33 1019.49
1009.01 1009.64 1009.19 1010.11 1010.20 1010.02 1010.33 1010.32 1010.43 1010.58 1011.18 1010.69 1010.21 1010.09 1010.66 1012.55 1013.58 1014.02 1014.37 1015.11 1015.53 1015.83 1016.45 1016.74 1017.83 1018.55 1018.88 1018.89 1018.89 1018.57 1018.39 1018.66 1018.74 1019.05 1019.14 1019.04 1019.07 1018.47 1018.29 1018.40 1018.42 1018.55 1018.72 1019.00 1019.17
1007.96 1008.72 1009.22 1009.05 1008.87 1009.51 1009.53 1009.24 1009.52 1010.22 1010.50 1010.30 1008.95 1009.60 1009.80 1010.45 1010.78 1012.35 1012.98 1013.94 1014.89 1016.16 1016.50 1016.91 1018.05 1018.88 1019.80 1019.63 1019.51 1019.18 1018.42 1018.24 1018.52 1018.76 1018.80 1018.64 1018.56 1017.83 1017.31 1017.74 1018.10 1017.82 1018.15 1018.90 1019.33
1006.94 1007.30 1007.61 1008.49 1008.73 1009.25 1008.79 1008.72 1008.98 1009.35 1009.72 1009.26 1009.23 1009.44 1009.83 1009.86 1010.53 1010.87 1011.91 1012.92 1013.69 1014.83 1016.21 1017.33 1018.51 1019.90 1021.05 1021.10 1020.50 1019.58 1018.25 1018.00 1018.07 1018.08 1017.95 1017.72 1017.10 1017.13 1017.37 1017.28 1016.72 1017.22 1018.04 1018.39 1018.97
Thickness
5547 5557 5564 5571 5577 5586 5588 5594 5600 5606 5610 5613 5619 5625 5631 5638 5648 5656 5659 5668 5673 5679 5686 5692 5696 5696 5702 5698 5699 5695 5672 5664 5684 5682 5695 5704 5705 5709 5714 5706 5708 5712 5711 5719 5719
5535 5545 5553 5559 5568 5574 5578 5584 5589 5598 5602 5605 5610 5614 5621 5628 5635 5643 5656 5662 5667 5674 5677 5677 5678 5684 5683 5686 5687 5677 5665 5676 5688 5689 5693 5698 5701 5701 5705 5701 5701 5704 5709 5712 5714
5526 5534 5541 5549 5556 5563 5569 5574 5581 5589 5594 5595 5600 5606 5611 5619 5622 5638 5647 5654 5660 5666 5670 5672 5674 5675 5676 5679 5679 5674 5670 5679 5688 5689 5689 5692 5696 5699 5694 5691 5698 5702 5705 5704 5707
5520 5526 5532 5538 5547 5552 5558 5565 5571 5578 5582 5586 5591 5596 5603 5608 5607 5632 5640 5648 5654 5660 5662 5664 5665 5664 5663 5667 5674 5672 5676 5678 5681 5684 5687 5685 5687 5692 5692 5700 5701 5707 5706 5701 5702
5513 5521 5524 5530 5537 5543 5550 5555 5561 5567 5572 5576 5581 5586 5592 5595 5607 5626 5632 5639 5645 5649 5653 5654 5655 5656 5654 5660 5666 5664 5671 5673 5676 5679 5680 5683 5678 5685 5687 5697 5699 5701 5700 5697 5698
5506 5510 5518 5526 5530 5534 5541 5546 5551 5556 5561 5566 5571 5576 5581 5585 5608 5615 5623 5630 5636 5639 5642 5645 5648 5652 5651 5654 5655 5660 5663 5663 5669 5672 5675 5678 5674 5680 5686 5690 5690 5692 5692 5691 5692
5504 5508 5516 5518 5524 5528 5534 5539 5543 5546 5552 5557 5562 5567 5571 5584 5598 5605 5614 5620 5626 5631 5632 5637 5643 5644 5647 5645 5651 5649 5650 5655 5661 5666 5668 5670 5668 5672 5678 5680 5682 5683 5683 5684 5683
5501 5504 5510 5513 5517 5523 5528 5530 5532 5536 5540 5547 5552 5556 5560 5582 5588 5596 5604 5611 5618 5622 5626 5633 5637 5634 5638 5639 5636 5632 5630 5632 5651 5657 5659 5660 5647 5671 5670 5673 5674 5674 5675 5675 5677
5494 5499 5504 5509 5513 5518 5524 5526 5524 5527 5530 5535 5541 5548 5558 5576 5580 5589 5596 5601 5608 5613 5618 5623 5625 5620 5625 5617 5614 5612 5613 5619 5634 5646 5647 5646 5642 5664 5659 5661 5663 5663 5664 5667 5668
5486 5495 5499 5503 5510 5514 5519 5522 5518 5514 5516 5523 5533 5538 5553 5564 5572 5579 5586 5594 5597 5601 5605 5607 5602 5602 5603 5607 5602 5606 5609 5612 5618 5634 5632 5633 5634 5650 5651 5654 5652 5654 5659 5659 5660
5477 5488 5494 5499 5506 5510 5512 5518 5510 5506 5511 5526 5538 5543 5551 5558 5564 5569 5577 5582 5586 5588 5584 5591 5589 5595 5607 5608 5608 5601 5604 5607 5611 5621 5623 5621 5621 5636 5642 5644 5645 5644 5645 5651 5651
5467 5476 5488 5497 5497 5504 5506 5517 5523 5528 5514 5517 5530 5536 5543 5550 5550 5556 5567 5568 5571 5571 5578 5577 5580 5590 5597 5599 5597 5599 5599 5601 5607 5613 5609 5610 5614 5629 5633 5640 5646 5649 5644 5644 5639
5456 5468 5479 5489 5489 5490 5498 5514 5522 5528 5515 5510 5520 5530 5534 5539 5544 5546 5556 5558 5558 5559 5566 5571 5582 5582 5585 5584 5585 5588 5587 5594 5595 5598 5599 5595 5604 5622 5636 5638 5644 5646 5648 5644 5640
5446 5455 5466 5476 5477 5486 5493 5505 5513 5520 5502 5502 5508 5523 5526 5531 5537 5543 5548 5552 5551 5548 5551 5561 5572 5571 5572 5574 5576 5572 5583 5590 5589 5582 5575 5585 5573 5607 5626 5626 5638 5642 5639 5635 5631
5435 5446 5452 5459 5480 5480 5492 5500 5502 5505 5501 5505 5508 5519 5521 5525 5529 5531 5542 5543 5539 5545 5549 5553 5557 5562 5566 5571 5572 5570 5573 5574 5578 5571 5570 5571 5564 5597 5615 5624 5630 5635 5630 5623 5616
5429 5432 5440 5452 5468 5481 5483 5489 5489 5486 5493 5489 5506 5512 5514 5515 5516 5519 5531 5538 5540 5542 5545 5545 5555 5559 5562 5564 5568 5562 5562 5557 5550 5554 5528 5563 5565 5570 5602 5618 5623 5618 5611 5604 5598
5420 5425 5434 5448 5465 5469 5476 5483 5483 5500 5475 5493 5507 5516 5521 5516 5506 5513 5520 5524 5526 5520 5520 5539 5546 5553 5559 5553 5558 5560 5556 5509 5517 5534 5527 5546 5550 5565 5594 5605 5611 5613 5593 5586 5585
5412 5416 5427 5439 5448 5457 5455 5469 5483 5480 5486 5502 5513 5511 5516 5515 5509 5508 5516 5522 5520 5521 5511 5512 5511 5543 5554 5555 5553 5547 5550 5519 5526 5520 5528 5536 5548 5583 5594 5585 5590 5595 5579 5575 5571
5405 5407 5417 5429 5432 5442 5445 5442 5480 5480 5490 5508 5502 5497 5506 5509 5519 5510 5518 5529 5525 5519 5525 5506 5521 5536 5543 5549 5552 5541 5541 5540 5511 5461 5499 5532 5551 5576 5584 5573 5570 5569 5568 5564 5563
5395 5402 5409 5416 5422 5428 5422 5451 5455 5469 5490 5501 5504 5505 5509 5513 5512 5513 5512 5531 5520 5521 5527 5519 5507 5522 5531 5538 5540 5542 5538 5526 5486 5482 5480 5523 5537 5563 5579 5579 5560 5553 5554 5556 5556
5387 5393 5407 5407 5404 5404 5418 5431 5448 5458 5487 5489 5491 5502 5512 5515 5510 5511 5514 5520 5526 5515 5516 5516 5520 5512 5520 5525 5531 5531 5527 5529 5517 5496 5497 5494 5536 5548 5562 5557 5554 5542 5546 5547 5547
5384 5385 5397 5404 5387 5394 5420 5431 5444 5446 5475 5485 5491 5497 5507 5515 5504 5510 5506 5521 5528 5524 5511 5512 5509 5488 5522 5513 5511 5525 5525 5518 5496 5503 5487 5496 5520 5540 5546 5551 5544 5539 5538 5537 5536
5374 5381 5390 5392 5383 5398 5408 5434 5450 5441 5468 5484 5492 5504 5508 5501 5492 5499 5497 5512 5513 5517 5514 5510 5490 5493 5487 5509 5506 5516 5522 5520 5508 5502 5504 5497 5515 5527 5533 5534 5533 5532 5531 5532 5537
5368 5368 5372 5381 5388 5402 5411 5426 5435 5449 5459 5476 5481 5496 5494 5491 5485 5491 5494 5501 5502 5511 5511 5512 5493 5502 5494 5511 5511 5502 5516 5519 5517 5517 5511 5513 5523 5526 5522 5523 5523 5523 5525 5530 5528
5367 5368 5378 5382 5398 5406 5410 5421 5436 5441 5444 5461 5478 5498 5497 5478 5478 5484 5489 5491 5493 5500 5498 5505 5482 5489 5498 5507 5504 5505 5513 5502 5516 5519 5515 5513 5505 5516 5519 5515 5516 5517 5517 5518 5516
5372 5373 5377 5389 5401 5403 5412 5423 5438 5435 5442 5456 5492 5499 5501 5498 5520 5492 5502 5503 5496 5487 5489 5497 5489 5487 5467 5487 5485 5498 5498 5503 5505 5501 5501 5501 5493 5511 5520 5510 5507 5519 5516 5503 5499
5371 5378 5385 5387 5397 5400 5411 5427 5438 5450 5445 5467 5484 5490 5492 5506 5507 5519 5512 5511 5501 5502 5488 5484 5477 5476 5480 5450 5475 5476 5477 5491 5496 5487 5500 5495 5516 5511 5507 5507 5515 5514 5496 5493 5491